Flag for Iran Weather past 2 weeks in Mashhad, Iran

Now
37 °F

Fog.


Feels Like: 34 °F
Forecast: 23 / 52 °F
Wind: 5 mph from Southeast

Location: Mashhad Airport

Current Time: Dec 18, 2014 at 6:43:07 PM

Latest Report: Dec 18, 2014 at 6:00 PM


Visibility: 2 mi

Pressure: 30.21 "Hg

Humidity: 100%

Dew point: 37 °F

Location of MashhadLocation

Historic Weather in Mashhad — Graph

°F

Mashhad temperature yesterday

Maximum temperature yesterday: 43 °F (at 12:30 PM)
Minimum temperature yesterday: 36 °F (at 12:30 AM)
Average temperature yesterday: 39 °F

Past Weeks' High & Low Weather Summary

 TemperatureHumidityPressure
High57 °F (Dec 10, 1:30 PM)100% (Dec 3, 10:30 PM)30.69 "Hg (Dec 3, 10:30 PM)
Low25 °F (Dec 8, 5:30 AM)12% (Dec 15, 2:00 PM)30.12 "Hg (Dec 5, 5:30 PM)
Average38 °F68%30.33 "Hg
* Reported Dec 3 5:30 PM — Dec 18 5:30 PM, Mashhad, Weather by CustomWeather, © 2014

Note: Actual official high and low records may vary slightly from our data, if they occured in-between our weather recording intervals... More about our weather records

Advertising

Mashhad weather history for previous 24 hours

 ConditionsComfort  
Time TempWeatherWind HumidityBarometerVisibility
5:30 PM
Dec 18
39 °FFog.5 mph93%30.21 "Hg2 mi
5:00 PM37 °FFog.5 mph100%30.21 "Hg2 mi
4:30 PM39 °FFog.5 mph93%30.18 "Hg2 mi
4:00 PM39 °FFog.5 mph93%30.18 "Hg3 mi
3:30 PM39 °FMostly cloudy.7 mph93%30.18 "Hg4 mi
3:00 PM39 °FOvercast.7 mph93%30.18 "Hg4 mi
2:30 PM39 °FOvercast.7 mph93%30.18 "Hg4 mi
2:00 PM39 °FDrizzle. Overcast.5 mph93%30.18 "Hg4 mi
1:30 PM41 °FMostly cloudy.9 mph87%30.21 "Hg4 mi
1:00 PM41 °FPartly sunny.5 mph93%30.21 "Hg4 mi
12:30 PM39 °FOvercast.7 mph100%30.21 "Hg4 mi
12:00 PM39 °FLow clouds.7 mph100%30.21 "Hg4 mi
11:30 AM39 °FDrizzle. Fog.7 mph100%30.21 "Hg3 mi
11:00 AM39 °FDrizzle. Low clouds.7 mph93%30.24 "Hg3 mi
10:30 AM37 °FDrizzle. Fog.7 mph100%30.24 "Hg3 mi
10:00 AM37 °FDrizzle. Fog.5 mph100%30.27 "Hg3 mi
9:30 AM37 °FDrizzle. Mostly cloudy.5 mph93%30.27 "Hg3 mi
9:00 AM36 °FLight rain. Fog.5 mph100%30.27 "Hg3 mi
8:30 AM37 °FLight rain. Fog.7 mph100%30.24 "Hg2 mi
8:00 AM36 °FLight rain. Fog.5 mph100%30.24 "Hg2 mi
7:00 AM37 °FLight rain. Fog.7 mph100%30.24 "Hg2 mi
6:30 AM37 °FLight rain. Fog.5 mph100%30.21 "Hg3 mi
6:00 AM37 °FOvercast.7 mph100%30.21 "Hg4 mi
5:30 AM37 °FOvercast.5 mph100%30.21 "Hg4 mi
5:00 AM37 °FOvercast.5 mph100%30.21 "Hg4 mi
4:30 AM37 °FOvercast.9 mph100%30.21 "Hg4 mi
4:00 AM37 °FOvercast.7 mph100%30.21 "Hg4 mi
3:30 AM37 °FOvercast.7 mph100%30.21 "Hg4 mi
3:00 AM37 °FMostly cloudy.7 mph100%30.24 "Hg4 mi
2:30 AM37 °FDrizzle. Mostly cloudy.5 mph100%30.24 "Hg4 mi
2:00 AM37 °FMostly cloudy.7 mph100%30.24 "HgN/A
1:30 AM37 °FMostly cloudy.12 mph100%30.24 "HgN/A
1:00 AM39 °FMostly cloudy.12 mph93%30.24 "HgN/A
12:30 AM39 °FMostly cloudy.7 mph100%30.24 "HgN/A
12:00 AM39 °FMostly cloudy.7 mph100%30.24 "Hg5 mi
11:30 PM
Dec 17
39 °FMostly cloudy.9 mph100%30.24 "Hg5 mi
11:00 PM39 °FMostly cloudy.5 mph100%30.27 "Hg4 mi
10:30 PM39 °FMostly cloudy.5 mph93%30.27 "Hg4 mi
10:00 PM39 °FMostly cloudy.5 mph93%30.27 "Hg4 mi
9:30 PM39 °FMostly cloudy.7 mph93%30.27 "Hg5 mi
8:55 PM39 °FMostly cloudy.5 mph93%30.27 "Hg5 mi
8:30 PM41 °FMostly cloudy.7 mph87%30.27 "Hg5 mi
8:00 PM41 °FMostly cloudy.7 mph87%30.27 "Hg4 mi
7:30 PM41 °FMostly cloudy.7 mph87%30.27 "Hg4 mi
7:00 PM41 °FMostly cloudy.7 mph87%30.27 "Hg4 mi
6:30 PM41 °FMostly cloudy.5 mph87%30.27 "Hg4 mi
6:00 PM41 °FMostly cloudy.7 mph87%30.27 "Hg4 mi
Weather by CustomWeather, © 2014

See weather overviewHow to use our weather pages